Back to catalog

STARLINK-3659

AliveCommunicationsVLEO
NORAD 52001·PAYLOAD·🇺🇸 United States

Launched Mar 9, 2022 from Cape Canaveral Space Force Station

Loading…

Next Passes (next 24 hours)

TLE

FreshSource: CelesTrak SupGP

Epoch: Sep 14, 2026, 14:10 UTC

1 52001C 22025AX  26257.59076389 -.00034594  00000+0 -99049-3 0  2575
2 52001  53.1569 241.2267 0001324  98.9918 223.0218 15.35392983    14

Track STARLINK-3659 in real time with AllMySat

Download on the App Store